Location: Kershaw
(34.5481°N, 80.5823°W)
Time: 04:39:20
(UTC+00:00)

Transit 2A Rocket - Pass Details

Date: 03 October 2022
Orbit: 589 x 911 km, 66.7° (Epoch: 27 November)

Event Time Altitude Azimuth Distance (km) Brightness Sun altitude
Rises 10:21:09 0° 199° (SSW) 2,875 7.8 -12.6°
Reaches altitude 10° 10:23:26 10° 197° (SSW) 1,946 6.9 -12.2°
Maximum altitude 10:27:44 68° 114° (ESE) 637 4.8 -11.3°
Drops below altitude 10° 10:31:59 10° 32° (NNE) 1,920 7.6 -10.4°
Sets 10:34:13 0° 30° (NNE) 2,833 8.4 -9.9°
